Tracking 29892 objects as of 21-Nov-2024
HD Live streaming from Space Station
objects crossing your sky now

STARLINK-2303

Track STARLINK-2303 now!
10-day predictions
STARLINK-2303 is classified as:


NORAD ID: 47981
Int'l Code: 2021-024E
Perigee: 553.5 km
Apogee: 555.1 km
Inclination: 53.1 °
Period: 95.6 minutes
Semi major axis: 6925 km
RCS: Unknown
Launch date: March 24, 2021
Source: United States (US)
Launch site: AIR FORCE EASTERN TEST RANGE (AFETR)
Your satellite tracking list
Your tracking list is empty




NASA's NSSDC Master Catalog

Two Line Element Set (TLE):
1 47981U 21024E   24325.38446062  .00007507  00000-0  52224-3 0  9994
2 47981  53.0551 305.8566 0001133  89.4392 270.6727 15.06406756203079
Source of the keplerian elements: AFSPC